Tracking 31027 objects as of 19-Jul-2025
HD Live streaming from Space Station
objects crossing your sky now

IRIDIUM 33 DEB

Track IRIDIUM 33 DEB now!
10-day predictions


NORAD ID: 35628
Int'l Code: 1997-051RA
Perigee: 674.8 km
Apogee: 695.3 km
Inclination: 86.4 °
Period: 98.3 minutes
Semi major axis: 7056 km
RCS: 0.0194 m2 (small)
Launch date: September 14, 1997
Source: United States (US)
Launch site: TYURATAM MISSILE AND SPACE COMPLEX (TTMTR)

Note: This is SATELLITE DEBRIS
Your satellite tracking list
KL-BETA B
Track 1 satellite(s)




NASA's NSSDC Master Catalog

Two Line Element Set (TLE):
1 35628U 97051RA  25199.41313732  .00004069  00000-0  75882-3 0  9998
2 35628  86.3547  74.6143 0014508 108.6589 251.6200 14.64734965842884
Source of the keplerian elements: AFSPC